| time (UTC) | temp F | wind direction | speed knots | gust knots | rain 1hr in | rain 24hr in | rain mn in | humidity % | barometer mb |
| 20260504081616 | 57 | 311 | 1.7 | 1.7 | 0.05 | 0.13 | 0.13 | 84 | 1008.6 |
| 20260504081112 | 58 | 326 | 3.5 | 3.5 | 0.12 | 0.13 | 0.13 | 83 | 1008.7 |
| 20260504080609 | 58 | 206 | 10.4 | 13.9 | 0.07 | 0.12 | 0.12 | 81 | 1009.1 |
| 20260504080105 | 57 | 252 | 6.1 | 7.8 | 0.00 | 0.11 | 0.11 | 87 | 1009.9 |
| 20260504050421 | 57 | 168 | 2.6 | 2.6 | 0.00 | 0.00 | 0.00 | 78 | 1010.2 |
| 20260504045919 | 57 | 153 | 2.6 | 2.6 | 0.00 | 0.00 | 0.00 | 78 | 1010.2 |
| 20260504045414 | 57 | 108 | 1.7 | 2.6 | 0.00 | 0.00 | 0.00 | 76 | 1009.8 |
| 20260504044911 | 57 | 112 | 0.0 | 0.9 | 0.00 | 0.00 | 0.00 | 77 | 1009.8 |
| 20260504044408 | 57 | 113 | 0.9 | 1.7 | 0.00 | 0.00 | 0.00 | 77 | 1009.8 |
| 20260504043906 | 58 | 116 | 0.9 | 1.7 | 0.00 | 0.00 | 0.00 | 76 | 1009.8 |
| 20260504043402 | 58 | 125 | 1.7 | 1.7 | 0.00 | 0.00 | 0.00 | 76 | 1010.2 |
| 20260504042900 | 58 | 136 | 2.6 | 2.6 | 0.00 | 0.00 | 0.00 | 76 | 1010.2 |
| 20260504042356 | 58 | 148 | 0.9 | 0.9 | 0.00 | 0.00 | 0.00 | 76 | 1010.5 |
| 20260504041852 | 59 | 124 | 0.9 | 1.7 | 0.00 | 0.00 | 0.00 | 75 | 1010.6 |
| 20260504041348 | 59 | 157 | 2.6 | 2.6 | 0.00 | 0.00 | 0.00 | 74 | 1010.6 |
| 20260504040845 | 58 | 107 | 0.0 | 0.0 | 0.00 | 0.00 | 0.00 | 78 | 1010.4 |
| 20260504040342 | 58 | 102 | 0.0 | 0.0 | 0.00 | 0.00 | 0.00 | 76 | 1010.9 |
| 20260504035838 | 58 | 102 | 0.0 | 0.0 | 0.00 | 0.00 | 0.00 | 76 | 1010.7 |
| 20260504035337 | 59 | 121 | 0.0 | 0.0 | 0.00 | 0.00 | 0.00 | 75 | 1011.0 |
| 20260504034832 | 59 | 150 | 0.0 | 0.0 | 0.00 | 0.00 | 0.00 | 75 | 1010.9 |
| 20260504034325 | 59 | 148 | 0.9 | 1.7 | 0.00 | 0.00 | 0.00 | 75 | 1010.9 |
| 20260504033821 | 60 | 150 | 1.7 | 2.6 | 0.00 | 0.00 | 0.00 | 73 | 1010.7 |
| 20260504033320 | 60 | 153 | 0.9 | 1.7 | 0.00 | 0.00 | 0.00 | 72 | 1010.7 |
| 20260504032815 | 60 | 143 | 1.7 | 1.7 | 0.00 | 0.00 | 0.00 | 72 | 1010.8 |
| 20260504032313 | 61 | 146 | 1.7 | 2.6 | 0.00 | 0.00 | 0.00 | 71 | 1010.8 |
| 20260504031809 | 61 | 144 | 1.7 | 2.6 | 0.00 | 0.00 | 0.00 | 71 | 1011.0 |
| 20260504031307 | 61 | 131 | 1.7 | 3.5 | 0.00 | 0.00 | 0.00 | 69 | 1011.0 |
| 20260504030802 | 61 | 104 | 1.7 | 2.6 | 0.00 | 0.00 | 0.00 | 69 | 1010.8 |
| 20260504030300 | 61 | 177 | 1.7 | 1.7 | 0.00 | 0.00 | 0.00 | 69 | 1010.7 |
| 20260504025755 | 61 | 117 | 1.7 | 1.7 | 0.00 | 0.00 | 0.00 | 69 | 1010.8 |
| 20260504025253 | 62 | 91 | 0.0 | 0.9 | 0.00 | 0.00 | 0.00 | 70 | 1011.0 |
| 20260504024749 | 62 | 148 | 0.9 | 0.9 | 0.00 | 0.00 | 0.00 | 68 | 1011.1 |
| 20260504024246 | 62 | 137 | 0.9 | 1.7 | 0.00 | 0.00 | 0.00 | 67 | 1011.0 |
| 20260504023743 | 63 | 105 | 0.0 | 0.9 | 0.00 | 0.00 | 0.00 | 65 | 1010.6 |
| 20260504023239 | 63 | 184 | 0.9 | 0.9 | 0.00 | 0.00 | 0.00 | 64 | 1010.7 |
| 20260504022735 | 64 | 53 | 0.9 | 0.9 | 0.00 | 0.00 | 0.00 | 64 | 1010.9 |
| 20260504022231 | 64 | 270 | 0.0 | 0.9 | 0.00 | 0.00 | 0.00 | 62 | 1011.2 |
| 20260504021729 | 64 | 252 | 0.9 | 1.7 | 0.00 | 0.00 | 0.00 | 62 | 1011.0 |
| 20260504021226 | 64 | 168 | 1.7 | 1.7 | 0.00 | 0.00 | 0.00 | 62 | 1010.9 |
| 20260504020723 | 64 | 116 | 1.7 | 2.6 | 0.00 | 0.00 | 0.00 | 61 | 1010.7 |
| 20260504020219 | 64 | 140 | 3.5 | 5.2 | 0.00 | 0.00 | 0.00 | 62 | 1010.7 |
| 20260504015716 | 65 | 139 | 1.7 | 1.7 | 0.00 | 0.00 | 0.00 | 61 | 1010.8 |
| 20260504015212 | 65 | 133 | 3.5 | 3.5 | 0.00 | 0.00 | 0.00 | 59 | 1010.8 |
| 20260504014708 | 65 | 129 | 2.6 | 2.6 | 0.00 | 0.00 | 0.00 | 59 | 1010.8 |
| 20260504014205 | 64 | 135 | 1.7 | 1.7 | 0.00 | 0.00 | 0.00 | 63 | 1010.6 |
| 20260504013703 | 64 | 126 | 1.7 | 1.7 | 0.00 | 0.00 | 0.00 | 63 | 1010.6 |
| 20260504013159 | 64 | 9 | 0.9 | 1.7 | 0.00 | 0.00 | 0.00 | 61 | 1010.7 |
| 20260504012656 | 64 | 151 | 0.0 | 0.0 | 0.00 | 0.00 | 0.00 | 63 | 1010.2 |
| 20260504012154 | 64 | 157 | 1.7 | 2.6 | 0.00 | 0.00 | 0.00 | 63 | 1010.1 |
| 20260504011651 | 65 | 145 | 1.7 | 2.6 | 0.00 | 0.00 | 0.00 | 62 | 1010.3 |
| 20260504011148 | 65 | 144 | 0.9 | 1.7 | 0.00 | 0.00 | 0.00 | 61 | 1010.1 |
| 20260504010643 | 65 | 127 | 1.7 | 2.6 | 0.00 | 0.00 | 0.00 | 62 | 1009.8 |
| 20260504010139 | 65 | 133 | 2.6 | 3.5 | 0.00 | 0.00 | 0.00 | 59 | 1010.4 |
| 20260504005636 | 66 | 237 | 0.0 | 0.0 | 0.00 | 0.00 | 0.00 | 59 | 1010.7 |
| 20260504005128 | 66 | 163 | 1.7 | 1.7 | 0.00 | 0.00 | 0.00 | 58 | 1010.1 |
| 20260504004626 | 66 | 167 | 1.7 | 1.7 | 0.00 | 0.00 | 0.00 | 56 | 1010.4 |
| 20260504004122 | 66 | 169 | 1.7 | 2.6 | 0.00 | 0.00 | 0.00 | 58 | 1010.1 |
| 20260504003619 | 66 | 165 | 0.9 | 1.7 | 0.00 | 0.00 | 0.00 | 58 | 1010.3 |
| 20260504003110 | 66 | 158 | 1.7 | 2.6 | 0.00 | 0.00 | 0.00 | 57 | 1010.5 |
| 20260504002607 | 66 | 136 | 2.6 | 3.5 | 0.00 | 0.00 | 0.00 | 57 | 1010.2 |
| 20260504002105 | 67 | 165 | 1.7 | 1.7 | 0.00 | 0.00 | 0.00 | 55 | 1010.3 |
| 20260504001602 | 67 | 143 | 3.5 | 6.1 | 0.00 | 0.00 | 0.00 | 53 | 1010.3 |
| 20260504001058 | 67 | 163 | 2.6 | 2.6 | 0.00 | 0.00 | 0.00 | 54 | 1010.3 |
| 20260504000555 | 68 | 164 | 2.6 | 2.6 | 0.00 | 0.00 | 0.00 | 53 | 1010.2 |
| 20260504000053 | 68 | 153 | 2.6 | 2.6 | 0.00 | 0.00 | 0.00 | 51 | 1010.4 |
| 20260503235551 | 68 | 172 | 2.6 | 2.6 | 0.00 | 0.00 | 0.00 | 53 | 1010.3 |
| 20260503235047 | 68 | 170 | 1.7 | 2.6 | 0.00 | 0.00 | 0.00 | 52 | 1010.5 |
| 20260503234545 | 68 | 145 | 2.6 | 3.5 | 0.00 | 0.00 | 0.00 | 51 | 1010.2 |
| 20260503234043 | 68 | 114 | 3.5 | 5.2 | 0.00 | 0.00 | 0.00 | 52 | 1010.3 |
| 20260503233539 | 68 | 163 | 4.3 | 6.1 | 0.00 | 0.00 | 0.00 | 50 | 1010.2 |
| 20260503233035 | 69 | 184 | 3.5 | 5.2 | 0.00 | 0.00 | 0.00 | 51 | 1010.3 |
| 20260503232533 | 69 | 164 | 4.3 | 5.2 | 0.00 | 0.00 | 0.00 | 50 | 1010.3 |
| 20260503232030 | 69 | 196 | 3.5 | 3.5 | 0.00 | 0.00 | 0.00 | 49 | 1010.3 |
| 20260503231528 | 70 | 136 | 4.3 | 6.1 | 0.00 | 0.00 | 0.00 | 48 | 1010.7 |
| 20260503231024 | 70 | 150 | 6.1 | 8.7 | 0.00 | 0.00 | 0.00 | 46 | 1010.7 |
| 20260503230521 | 70 | 150 | 3.5 | 3.5 | 0.00 | 0.00 | 0.00 | 46 | 1010.6 |
| 20260503230018 | 70 | 171 | 4.3 | 6.1 | 0.00 | 0.00 | 0.00 | 45 | 1010.6 |
| 20260503225514 | 70 | 184 | 4.3 | 5.2 | 0.00 | 0.00 | 0.00 | 45 | 1010.7 |
| 20260503225009 | 70 | 191 | 7.0 | 9.6 | 0.00 | 0.00 | 0.00 | 45 | 1010.8 |
| 20260503224507 | 71 | 176 | 5.2 | 7.8 | 0.00 | 0.00 | 0.00 | 44 | 1010.9 |
| 20260503223959 | 71 | 182 | 6.1 | 7.8 | 0.00 | 0.00 | 0.00 | 43 | 1010.8 |
| 20260503223457 | 71 | 182 | 10.4 | 13.0 | 0.00 | 0.00 | 0.00 | 43 | 1011.1 |
| 20260503222952 | 71 | 171 | 7.8 | 9.6 | 0.00 | 0.00 | 0.00 | 44 | 1011.0 |
| 20260503222451 | 71 | 196 | 9.6 | 12.2 | 0.00 | 0.00 | 0.00 | 43 | 1011.0 |
| 20260503221948 | 71 | 184 | 7.8 | 9.6 | 0.00 | 0.00 | 0.00 | 45 | 1011.1 |
| 20260503221446 | 72 | 200 | 12.2 | 13.0 | 0.00 | 0.00 | 0.00 | 42 | 1011.2 |
| 20260503220943 | 71 | 202 | 10.4 | 18.2 | 0.00 | 0.00 | 0.00 | 42 | 1011.3 |
| 20260503220439 | 71 | 235 | 10.4 | 13.9 | 0.00 | 0.00 | 0.00 | 42 | 1011.3 |
| 20260503215936 | 71 | 196 | 9.6 | 11.3 | 0.00 | 0.00 | 0.00 | 43 | 1011.4 |
| 20260503215433 | 71 | 178 | 6.1 | 8.7 | 0.00 | 0.00 | 0.00 | 44 | 1011.3 |
| 20260503214931 | 71 | 196 | 9.6 | 13.9 | 0.00 | 0.00 | 0.00 | 41 | 1011.4 |
| 20260503214428 | 71 | 202 | 10.4 | 13.9 | 0.00 | 0.00 | 0.00 | 41 | 1011.4 |
| 20260503213925 | 71 | 191 | 8.7 | 9.6 | 0.00 | 0.00 | 0.00 | 43 | 1011.8 |
| 20260503213424 | 71 | 245 | 7.8 | 9.6 | 0.00 | 0.00 | 0.00 | 43 | 1011.5 |
| 20260503212920 | 71 | 181 | 7.8 | 11.3 | 0.00 | 0.00 | 0.00 | 43 | 1011.3 |
| 20260503212417 | 71 | 234 | 9.6 | 13.9 | 0.00 | 0.00 | 0.00 | 40 | 1010.9 |
| 20260503211915 | 71 | 224 | 10.4 | 15.6 | 0.00 | 0.00 | 0.00 | 40 | 1011.3 |
| 20260503211412 | 70 | 187 | 8.7 | 11.3 | 0.00 | 0.00 | 0.00 | 44 | 1011.6 |
| 20260503210907 | 70 | 205 | 12.2 | 18.2 | 0.00 | 0.00 | 0.00 | 44 | 1011.8 |
| 20260503210404 | 70 | 214 | 11.3 | 13.9 | 0.00 | 0.00 | 0.00 | 43 | 1012.0 |
| 20260503205858 | 70 | 136 | 9.6 | 14.8 | 0.00 | 0.00 | 0.00 | 43 | 1012.0 |
| 20260503205355 | 69 | 173 | 9.6 | 12.2 | 0.00 | 0.00 | 0.00 | 44 | 1012.0 |
| 20260503204852 | 69 | 192 | 13.0 | 19.1 | 0.00 | 0.00 | 0.00 | 42 | 1011.9 |
| 20260503204349 | 69 | 108 | 7.0 | 9.6 | 0.00 | 0.00 | 0.00 | 44 | 1012.1 |
| 20260503203846 | 69 | 199 | 9.6 | 13.9 | 0.00 | 0.00 | 0.00 | 44 | 1011.7 |
| 20260503203344 | 69 | 214 | 7.8 | 11.3 | 0.00 | 0.00 | 0.00 | 42 | 1012.0 |
| 20260503202841 | 68 | 179 | 14.8 | 19.1 | 0.00 | 0.00 | 0.00 | 43 | 1012.0 |
| 20260503202339 | 68 | 208 | 11.3 | 15.6 | 0.00 | 0.00 | 0.00 | 45 | 1012.0 |
| 20260503201837 | 68 | 178 | 7.8 | 11.3 | 0.00 | 0.00 | 0.00 | 43 | 1012.1 |
| 20260503201333 | 68 | 151 | 7.8 | 9.6 | 0.00 | 0.00 | 0.00 | 43 | 1012.1 |
| 20260503200831 | 68 | 202 | 8.7 | 13.0 | 0.00 | 0.00 | 0.00 | 42 | 1012.2 |
| 20260503200326 | 68 | 171 | 14.8 | 18.2 | 0.00 | 0.00 | 0.00 | 44 | 1012.2 |
| 20260503195824 | 67 | 177 | 12.2 | 14.8 | 0.00 | 0.00 | 0.00 | 44 | 1012.5 |
| 20260503195320 | 67 | 194 | 10.4 | 14.8 | 0.00 | 0.00 | 0.00 | 43 | 1012.3 |
| 20260503194818 | 67 | 176 | 8.7 | 13.0 | 0.00 | 0.00 | 0.00 | 46 | 1012.3 |
| 20260503194314 | 67 | 187 | 13.0 | 16.5 | 0.00 | 0.00 | 0.00 | 46 | 1012.7 |
| 20260503193810 | 67 | 188 | 20.0 | 23.5 | 0.00 | 0.00 | 0.00 | 43 | 1012.9 |
| 20260503193306 | 67 | 171 | 13.9 | 19.1 | 0.00 | 0.00 | 0.00 | 45 | 1012.5 |
| 20260503192802 | 67 | 164 | 13.0 | 20.9 | 0.00 | 0.00 | 0.00 | 46 | 1012.4 |
| 20260503192257 | 67 | 173 | 7.0 | 9.6 | 0.00 | 0.00 | 0.00 | 46 | 1012.6 |
| 20260503191754 | 67 | 170 | 7.8 | 13.0 | 0.00 | 0.00 | 0.00 | 44 | 1012.9 |
| 20260503191251 | 66 | 200 | 18.2 | 20.9 | 0.00 | 0.00 | 0.00 | 43 | 1012.9 |
| 20260503190748 | 66 | 192 | 13.0 | 15.6 | 0.00 | 0.00 | 0.00 | 44 | 1013.3 |
| 20260503190245 | 64 | 238 | 14.8 | 20.9 | 0.00 | 0.00 | 0.00 | 47 | 1013.7 |
| 20260503185742 | 64 | 194 | 12.2 | 18.2 | 0.00 | 0.00 | 0.00 | 48 | 1014.0 |
| 20260503185238 | 65 | 172 | 13.9 | 19.1 | 0.00 | 0.00 | 0.00 | 45 | 1014.3 |
| 20260503184732 | 65 | 218 | 11.3 | 13.0 | 0.00 | 0.00 | 0.00 | 48 | 1014.4 |
| 20260503184229 | 64 | 201 | 11.3 | 14.8 | 0.00 | 0.00 | 0.00 | 48 | 1014.4 |
| 20260503183725 | 64 | 139 | 8.7 | 14.8 | 0.00 | 0.00 | 0.00 | 50 | 1014.5 |
| 20260503183223 | 64 | 185 | 9.6 | 12.2 | 0.00 | 0.00 | 0.00 | 49 | 1014.8 |
| 20260503182721 | 64 | 135 | 9.6 | 13.0 | 0.00 | 0.00 | 0.00 | 49 | 1014.7 |
| 20260503182219 | 64 | 144 | 7.8 | 9.6 | 0.00 | 0.00 | 0.00 | 50 | 1014.8 |
| 20260503181715 | 64 | 166 | 12.2 | 14.8 | 0.00 | 0.00 | 0.00 | 50 | 1015.1 |
| 20260503181213 | 65 | 139 | 10.4 | 13.0 | 0.00 | 0.00 | 0.00 | 48 | 1015.1 |
| 20260503180709 | 65 | 179 | 7.8 | 8.7 | 0.00 | 0.00 | 0.00 | 49 | 1015.2 |
| 20260503180208 | 65 | 193 | 12.2 | 16.5 | 0.00 | 0.00 | 0.00 | 51 | 1015.5 |
| 20260503175704 | 65 | 182 | 14.8 | 18.2 | 0.00 | 0.00 | 0.00 | 48 | 1015.9 |
| 20260503175202 | 65 | 199 | 13.9 | 16.5 | 0.00 | 0.00 | 0.00 | 47 | 1016.3 |
| 20260503174657 | 65 | 208 | 13.0 | 20.0 | 0.00 | 0.00 | 0.00 | 49 | 1016.5 |
| 20260503174155 | 64 | 199 | 7.8 | 8.7 | 0.00 | 0.00 | 0.00 | 50 | 1016.5 |
| 20260503173650 | 64 | 193 | 12.2 | 16.5 | 0.00 | 0.00 | 0.00 | 51 | 1016.6 |
| 20260503173146 | 64 | 212 | 10.4 | 20.0 | 0.00 | 0.00 | 0.00 | 51 | 1017.0 |
| 20260503172644 | 64 | 154 | 11.3 | 13.9 | 0.00 | 0.00 | 0.00 | 51 | 1017.0 |
| 20260503172141 | 64 | 210 | 13.9 | 18.2 | 0.00 | 0.00 | 0.00 | 49 | 1017.0 |
| 20260503171637 | 63 | 226 | 8.7 | 12.2 | 0.00 | 0.00 | 0.00 | 51 | 1017.1 |
| 20260503171135 | 62 | 163 | 7.8 | 11.3 | 0.00 | 0.00 | 0.00 | 56 | 1017.0 |
| 20260503170632 | 62 | 218 | 7.0 | 8.7 | 0.00 | 0.00 | 0.00 | 56 | 1017.1 |
| 20260503170128 | 62 | 134 | 1.7 | 2.6 | 0.00 | 0.00 | 0.00 | 56 | 1016.9 |
| 20260503150520 | 57 | 202 | 10.4 | 13.9 | 0.00 | 0.00 | 0.00 | 62 | 1018.6 |
| 20260503131413 | 50 | 171 | 8.7 | 9.6 | 0.00 | 0.00 | 0.00 | 75 | 1019.5 |
| 20260503130910 | 50 | 171 | 5.2 | 7.0 | 0.00 | 0.00 | 0.00 | 78 | 1019.4 |
| 20260503130407 | 49 | 197 | 7.8 | 8.7 | 0.00 | 0.00 | 0.00 | 78 | 1019.5 |